| time (UTC) | temp C | wind direction | speed KPH | gust KPH | rain 1hr cm | rain 24hr cm | rain mn cm | humidity % | barometer mb |
| 20260506061553 | 7 | 97 | 0.0 | 1.6 | 0.00 | 0.00 | 0.00 | 55 | 1012.1 |
| 20260506044543 | 2 | 84 | 0.0 | 0.0 | 0.00 | 0.00 | 0.00 | 74 | 1012.1 |
| 20260506043033 | 1 | 84 | 0.0 | 0.0 | 0.00 | 0.00 | 0.00 | 79 | 1012.0 |
| 20260506041528 | 0 | 84 | 0.0 | 0.0 | 0.00 | 0.00 | 0.00 | 83 | 1011.9 |
| 20260506040001 | -2 | 84 | 0.0 | 0.0 | 0.00 | 0.00 | 0.00 | 85 | 1011.8 |
| 20260506034601 | -4 | 84 | 0.0 | 0.0 | 0.00 | 0.00 | 0.00 | 85 | 1011.7 |
| 20260506033058 | -4 | 84 | 0.0 | 1.6 | 0.00 | 0.00 | 0.00 | 85 | 1011.7 |
| 20260506031602 | -4 | 84 | 0.0 | 0.0 | 0.00 | 0.00 | 0.00 | 85 | 1011.6 |
| 20260506030111 | -4 | 84 | 0.0 | 0.0 | 0.00 | 0.00 | 0.00 | 85 | 1011.5 |
| 20260506024559 | -4 | 84 | 0.0 | 1.6 | 0.00 | 0.00 | 0.00 | 85 | 1011.6 |
| 20260506023054 | -4 | 84 | 0.0 | 0.0 | 0.00 | 0.00 | 0.00 | 85 | 1011.4 |
| 20260506021559 | -4 | 84 | 0.0 | 0.0 | 0.00 | 0.00 | 0.00 | 84 | 1011.4 |
| 20260506020149 | -4 | 84 | 0.0 | 1.6 | 0.00 | 0.00 | 0.00 | 84 | 1011.3 |
| 20260506014556 | -4 | 84 | 0.0 | 0.0 | 0.00 | 0.00 | 0.00 | 84 | 1011.2 |
| 20260506013044 | -3 | 84 | 0.0 | 0.0 | 0.00 | 0.00 | 0.00 | 84 | 1011.2 |
| 20260506011529 | -3 | 84 | 0.0 | 1.6 | 0.00 | 0.00 | 0.00 | 83 | 1011.0 |
| 20260506010018 | -3 | 84 | 0.0 | 1.6 | 0.00 | 0.00 | 0.00 | 83 | 1011.0 |
| 20260506004524 | -3 | 84 | 0.0 | 1.6 | 0.00 | 0.00 | 0.00 | 83 | 1010.8 |
| 20260506003012 | -3 | 84 | 0.0 | 1.6 | 0.00 | 0.00 | 0.00 | 82 | 1010.7 |
| 20260506001512 | -3 | 84 | 0.0 | 1.6 | 0.00 | 0.00 | 0.00 | 82 | 1010.6 |
| 20260506000012 | -2 | 84 | 0.0 | 1.6 | 0.00 | 0.00 | 0.00 | 82 | 1010.5 |
| 20260505234507 | -2 | 84 | 0.0 | 1.6 | 0.00 | 0.00 | 0.00 | 81 | 1010.5 |
| 20260505233044 | -2 | 84 | 0.0 | 1.6 | 0.00 | 0.00 | 0.00 | 82 | 1010.6 |
| 20260505231541 | -2 | 84 | 0.0 | 0.0 | 0.00 | 0.00 | 0.00 | 81 | 1010.6 |
| 20260505230018 | -2 | 84 | 0.0 | 0.0 | 0.00 | 0.00 | 0.00 | 81 | 1010.5 |
| 20260505224551 | -2 | 84 | 0.0 | 0.0 | 0.00 | 0.00 | 0.00 | 80 | 1010.5 |
| 20260505223051 | -2 | 84 | 0.0 | 0.0 | 0.00 | 0.00 | 0.00 | 78 | 1010.5 |
| 20260505221546 | -1 | 84 | 0.0 | 0.0 | 0.00 | 0.00 | 0.00 | 77 | 1010.5 |
| 20260505220044 | -1 | 84 | 0.0 | 0.0 | 0.00 | 0.00 | 0.00 | 76 | 1010.4 |
| 20260505214539 | -1 | 84 | 0.0 | 0.0 | 0.00 | 0.00 | 0.00 | 74 | 1010.3 |
| 20260505213043 | 0 | 84 | 0.0 | 1.6 | 0.00 | 0.00 | 0.00 | 72 | 1010.3 |
| 20260505211536 | 0 | 84 | 0.0 | 0.0 | 0.00 | 0.00 | 0.00 | 70 | 1010.3 |
| 20260505210030 | 0 | 84 | 0.0 | 0.0 | 0.00 | 0.00 | 0.00 | 67 | 1010.1 |
| 20260505204531 | 1 | 84 | 0.0 | 0.0 | 0.00 | 0.00 | 0.00 | 64 | 1010.1 |
| 20260505203027 | 1 | 84 | 0.0 | 1.6 | 0.00 | 0.00 | 0.00 | 61 | 1009.9 |
| 20260505201519 | 2 | 84 | 0.0 | 1.6 | 0.00 | 0.00 | 0.00 | 60 | 1009.9 |
| 20260505200016 | 3 | 84 | 0.0 | 1.6 | 0.00 | 0.00 | 0.00 | 52 | 1009.7 |
| 20260505194513 | 4 | 84 | 0.0 | 0.0 | 0.00 | 0.00 | 0.00 | 47 | 1009.6 |
| 20260505193010 | 5 | 84 | 0.0 | 0.0 | 0.00 | 0.00 | 0.00 | 46 | 1009.4 |
| 20260505191506 | 5 | 84 | 0.0 | 0.0 | 0.00 | 0.00 | 0.00 | 45 | 1009.4 |
| 20260505190004 | 6 | 84 | 0.0 | 4.8 | 0.00 | 0.00 | 0.00 | 41 | 1009.3 |
| 20260505184502 | 7 | 84 | 0.0 | 4.8 | 0.00 | 0.00 | 0.00 | 38 | 1009.1 |
| 20260505183059 | 8 | 84 | 0.0 | 4.8 | 0.00 | 0.00 | 0.00 | 38 | 1008.9 |
| 20260505181557 | 8 | 86 | 3.2 | 11.3 | 0.00 | 0.00 | 0.00 | 37 | 1008.7 |
| 20260505180055 | 8 | 95 | 6.4 | 12.9 | 0.00 | 0.00 | 0.00 | 35 | 1008.6 |
| 20260505174554 | 9 | 97 | 4.8 | 11.3 | 0.00 | 0.00 | 0.00 | 36 | 1008.4 |
| 20260505173052 | 10 | 78 | 4.8 | 12.9 | 0.00 | 0.00 | 0.00 | 34 | 1008.4 |
| 20260505171552 | 10 | 1 | 4.8 | 14.5 | 0.00 | 0.00 | 0.00 | 33 | 1008.3 |
| 20260505170050 | 10 | 75 | 9.7 | 17.7 | 0.00 | 0.00 | 0.00 | 34 | 1008.2 |
| 20260505164549 | 10 | 80 | 4.8 | 17.7 | 0.00 | 0.00 | 0.00 | 34 | 1008.2 |
| 20260505163048 | 10 | 114 | 6.4 | 14.5 | 0.00 | 0.00 | 0.00 | 34 | 1008.1 |
| 20260505161546 | 10 | 73 | 6.4 | 14.5 | 0.00 | 0.00 | 0.00 | 35 | 1008.1 |
| 20260505153047 | 10 | 88 | 6.4 | 14.5 | 0.00 | 0.00 | 0.00 | 34 | 1008.0 |
| 20260505151541 | 10 | 93 | 6.4 | 16.1 | 0.00 | 0.00 | 0.00 | 33 | 1008.0 |
| 20260505124524 | 10 | 99 | 8.0 | 19.3 | 0.00 | 0.00 | 0.00 | 37 | 1008.1 |
| 20260505123022 | 10 | 154 | 6.4 | 19.3 | 0.00 | 0.00 | 0.00 | 39 | 1008.1 |
| 20260505121520 | 10 | 72 | 9.7 | 25.7 | 0.00 | 0.00 | 0.00 | 38 | 1008.0 |
| 20260505120033 | 10 | 109 | 9.7 | 24.1 | 0.00 | 0.00 | 0.00 | 39 | 1007.9 |
| 20260505114517 | 9 | 71 | 16.1 | 29.0 | 0.00 | 0.00 | 0.00 | 37 | 1007.9 |
| 20260505113016 | 9 | 104 | 11.3 | 29.0 | 0.00 | 0.00 | 0.00 | 43 | 1008.0 |
| 20260505111523 | 9 | 47 | 14.5 | 22.5 | 0.00 | 0.00 | 0.00 | 39 | 1007.9 |
| 20260505101508 | 8 | 108 | 11.3 | 25.7 | 0.00 | 0.00 | 0.00 | 44 | 1007.7 |
| 20260505100007 | 8 | 59 | 12.9 | 30.6 | 0.00 | 0.00 | 0.00 | 44 | 1007.6 |
| 20260505094506 | 8 | 107 | 12.9 | 27.4 | 0.00 | 0.00 | 0.00 | 44 | 1007.7 |
| 20260505093004 | 8 | 77 | 19.3 | 27.4 | 0.00 | 0.00 | 0.00 | 43 | 1007.5 |
| 20260505091501 | 8 | 90 | 16.1 | 30.6 | 0.00 | 0.00 | 0.00 | 47 | 1007.4 |
| 20260505090123 | 8 | 73 | 12.9 | 25.7 | 0.00 | 0.00 | 0.00 | 49 | 1007.3 |
| 20260505084615 | 8 | 90 | 16.1 | 30.6 | 0.00 | 0.00 | 0.00 | 50 | 1007.2 |
| 20260505083110 | 7 | 70 | 14.5 | 25.7 | 0.00 | 0.00 | 0.00 | 51 | 1007.1 |
| 20260505081601 | 7 | 72 | 16.1 | 27.4 | 0.00 | 0.00 | 0.00 | 51 | 1007.0 |
| 20260505080100 | 7 | 42 | 16.1 | 25.7 | 0.00 | 0.00 | 0.00 | 54 | 1006.8 |
| 20260505074552 | 7 | 100 | 14.5 | 27.4 | 0.00 | 0.00 | 0.00 | 56 | 1006.8 |
| 20260505073055 | 7 | 60 | 11.3 | 32.2 | 0.00 | 0.00 | 0.00 | 55 | 1006.7 |
| 20260505071554 | 7 | 85 | 14.5 | 24.1 | 0.00 | 0.00 | 0.00 | 58 | 1006.6 |